Regional Weather Roundup
Issued by NWS Green Bay, WI

Home | Current Version | Previous Version | Text Only | Print | Product List | Glossary On
Versions: 1 2 3 4 5 6 7 8 9 10 11 12 13 14 15 16 17 18 19 20 21 22 23 24 25 26 27 28 29 30 31 32 33 34 35 36 37 38 39 40 41 42 43 44 45 46 47 48 49 50
000
ASUS43 KGRB 221211
RWRGRB

NORTH-CENTRAL AND NORTHEAST WISCONSIN REGIONAL WEATHER ROUNDUP
NATIONAL WEATHER SERVICE GREEN BAY WI
600 AM CST WED JAN 22 2020

WIZ005-009-010>012-018-019-221300-
NORTH CENTRAL WISCONSIN

CITY           SKY/WX    TMP DP  RH WIND       PRES   REMARKS
IRONWOOD       CLOUDY    22  17  81 SW13G20   29.85F WCI  10
MANITOWISH WTR CLOUDY    21  17  85 SW12G20   29.85F WCI   9
ARBOR VITAE    CLOUDY    23  20  89 SW7       29.87F
EAGLE RIVER    CLOUDY    20  15  82 SW9       29.88S WCI   9
LAND O LAKES   CLOUDY    20  17  86 SW8       29.88S
RHINELANDER    CLOUDY    20  15  81 SW9G20    29.89F WCI   9
PHILLIPS       CLOUDY    21  19  89 SW12G20   29.88S WCI   9
ANTIGO         CLOUDY    21  17  85 SW15      29.94F WCI   8
TOMAHAWK       CLOUDY    20  17  88 CALM      29.91F
MERRILL        LGT SNOW  22  18  85 SW9       29.95S
$$

WIZ013-073-221300-
NORTHEAST WISCONSIN

CITY           SKY/WX    TMP DP  RH WIND       PRES   REMARKS
IRON MOUNTAIN  CLOUDY    20  13  74 S8        29.92F
MARINETTE      FAIR      22  18  85 SW10      30.04F
OCONTO         FAIR      23  18  80 SW15G21   30.04F
$$

WIZ017-030-035>037-045-221300-
CENTRAL WISCONSIN

CITY           SKY/WX    TMP DP  RH WIND       PRES   REMARKS
MEDFORD        MIX PCPN  22  19  89 S15G22    29.92S WCI   8
WAUSAU         CLOUDY    23  17  78 S14       29.94F
MOSINEE        CLOUDY    23  18  80 S18G24    29.97S WCI   9
MARSHFIELD     CLOUDY    24  17  74 S15       29.94F
WISC RAPIDS    CLOUDY    25  18  74 S14G25    30.01F
STEVENS POINT  CLOUDY    21  17  83 S10       30.01S
WAUPACA        FAIR      25  19  77 S13       30.05F
SHAWANO        CLOUDY    25  19  78 SW8       30.02F
CLINTONVILLE   MOCLDY    23  17  77 S13G18    30.03F
WAUTOMA        FAIR      24  18  77 S9        30.06F
$$

WIZ038-039-048-051-221300-
FOX VALLEY

CITY           SKY/WX    TMP DP  RH WIND       PRES   REMARKS
NWS GREEN BAY  FAIR      24  17  74 SW20G31   30.07F WCI  10
APPLETON       PTCLDY    21  14  73 SW18G24   30.05S WCI   6
OSHKOSH        FAIR      23  17  78 S17G29    30.07S WCI   9
FOND DU LAC    FAIR      24  18  77 S20G35    30.09F WCI  10
$$

WIZ022-050-052-221300-
EAST CENTRAL WISCONSIN

CITY           SKY/WX    TMP DP  RH WIND       PRES   REMARKS
EPHRAIM        FAIR      20  16  83 S7        30.03S
WASHINGTON ISL FAIR      22  17  80 SW9       30.03F
STURGEON BAY   FAIR      24  18  77 SW16      30.05F
MANITOWOC      FAIR      26  19  74 SW12      30.10F
SHEBOYGAN      FAIR      25  17  72 SW21      30.11F
$$

LMZ563-521-522-541>543-221300-
LAKESHORE

STATION/POSITION TIME  TEMP    WIND        PRES    VSBY  WAVE
                       AIR SEA DIR/SP/G                  HT/PER
                 (UTC) (F)     (DEG/KT/KT) (MB)    (MI)  (FT/S)
SHEBOYGAN LKSHOR 1200   25     210/ 19/ 21   N/A
KEWAUNEE LKSHORE 1130   25     210/ 12/ 15 1018.2F
MENOMINEE LKSHOR 1130   22 35  200/ 12/ 16 1016.9F
$$



USA.gov is the U.S. government's official web portal to all federal, state and local government web resources and services.